#timestamp,LO_Frequency,Hit 
1504602015.7,286047006.3,N
1504602035.5,286047004.5,N
1504602055.4,286047006.3,N
1504602075.2,286047007.2,N
1504602095.0,286047004.0,N
1504602095.9,286047004.0,N
1504602115.5,286046999.9,N
1504602135.3,286047000.8,N
1504602155.2,286047001.6,N
1504602175.9,286046998.8,N
1504602195.7,286047002.1,N
1504602215.6,286047001.2,N
1504602235.4,286047001.2,N
1504602255.2,286046999.3,N
1504602275.1,286046997.8,N
1504602276.0,286046997.8,N
1504602295.8,286046999.4,N
1504602315.6,286047001.0,N
1504602335.5,286047002.2,N
1504602355.3,286047002.0,N
1504602375.1,286047000.3,N
1504602395.8,286047001.6,N
1504602415.7,286047002.0,N
1504602435.5,286047002.3,N
1504602455.3,286047003.4,N
1504602475.2,286047002.6,N
1504602495.0,286046998.8,N
1504602495.9,286046998.8,N
1504602515.7,286046998.7,N
1504602535.6,286047000.5,N
1504602555.4,286046998.2,N
1504602575.2,286046999.9,N
1504602595.1,286047000.2,N
1504602596.0,286047000.2,N
1504602615.8,286047000.0,N
1504602635.6,286047000.4,N
1504602655.5,286046996.5,N
1504602675.3,286046998.4,N
1504602695.1,286047000.7,N
1504602715.9,286046998.2,N
1504602735.7,286046999.4,N
1504602755.5,286047000.9,N
1504602775.4,286047003.3,N
1504602795.2,286047003.2,N
1504602815.0,286047001.4,N
1504602835.4,286047002.1,N
1504602855.2,286046999.7,N
1504602875.1,286047002.9,N
1504602876.0,286047002.9,N
1504602895.8,286047002.0,N
1504602915.6,286047000.6,N
1504602935.5,286046993.5,P
1504602955.3,286046992.2,N
1504602975.1,286046991.5,N
1504602995.9,286046989.0,P
1504603015.7,286046998.1,N
1504603035.5,286047000.6,N
1504603055.8,286047002.8,N
1504603075.6,286046998.7,N
1504603095.5,286046999.0,N
1504603115.3,286046998.5,N
1504603135.1,286047002.2,N
1504603155.9,286046998.9,N
1504603175.7,286046999.4,N
1504603195.5,286047000.9,N
1504603215.3,286047001.5,N
1504603235.2,286046998.8,N
1504603255.0,286046995.0,N
1504603255.9,286046995.0,N
1504603275.7,286046996.3,N
1504603295.6,286046994.9,N
1504603315.4,286046996.4,N
1504603335.2,286046993.5,N
1504603355.1,286046993.4,N
1504603375.0,286046996.8,N
1504603375.9,286046996.8,N
1504603395.8,286047000.6,N
1504603415.6,286046996.9,N
1504603435.4,286046997.5,N
1504603455.3,286046998.8,N
1504603475.1,286046998.8,N
1504603476.0,286046998.8,N
1504603495.8,286047001.1,N
1504603515.7,286046998.2,N
1504603535.5,286047001.2,N
1504603555.3,286047002.2,N
1504603575.2,286047001.3,N
1504603595.9,286047004.0,N
1504603615.7,286047003.5,N
1504603635.6,286047000.5,N
1504603655.4,286047006.0,N
1504603675.2,286047003.4,N
1504603695.0,286046999.8,N
1504603695.9,286046999.8,N
1504603715.8,286047000.0,N
1504603735.6,286047001.6,N
1504603755.4,286047003.1,N
1504603775.3,286047001.7,N
1504603795.1,286047001.4,N
1504603815.8,286047004.4,N
1504603835.7,286047005.5,N
1504603855.5,286047005.4,N
1504603875.3,286047002.1,N
1504603895.2,286046998.5,N
1504603915.9,286047001.8,N
1504603935.7,286047002.6,N
1504603955.6,286047005.6,N
1504603975.4,286047002.1,N
1504603995.2,286046998.2,N
1504604015.0,286047000.1,N
1504604016.0,286047000.1,N
1504604035.8,286047003.5,N
1504604055.6,286047007.7,P
1504604075.5,286047004.8,N
1504604095.3,286047001.9,N
1504604115.1,286047000.7,N
1504604135.9,286046998.2,N
1504604155.7,286047001.2,N
1504604175.5,286047000.0,N
1504604195.3,286047000.5,N
1504604215.2,286046999.7,N
1504604235.9,286047001.6,N
1504604255.7,286046999.9,N
1504604275.6,286047002.8,N
1504604295.4,286047002.1,N
1504604315.2,286047005.7,N
1504604335.1,286047005.9,N
1504604336.0,286047005.9,N
1504604355.8,286047000.1,N
1504604375.6,286046996.9,N
1504604395.5,286046997.7,N
1504604415.3,286047000.8,N
1504604435.1,286046998.1,N
1504604455.8,286047000.8,N
1504604475.7,286047000.2,N
1504604495.5,286046999.3,N
1504604515.3,286046999.2,N
1504604535.2,286047002.8,N
1504604555.9,286047002.2,N
1504604575.7,286047004.2,N
1504604595.6,286047004.1,N
1504604615.4,286047000.2,N
1504604635.2,286046998.9,N
1504604655.1,286047001.6,N
1504604656.0,286047001.6,N
1504604675.8,286047002.1,N
1504604695.6,286046999.0,N
1504604715.5,286047000.6,N
1504604735.3,286046995.7,N
1504604755.1,286047000.8,N
1504604775.9,286047000.8,N
1504604795.7,286046998.1,N
1504604815.5,286047000.0,N
1504604835.3,286047000.3,N
1504604855.2,286046997.4,N
1504604875.0,286046996.5,N
1504604875.9,286046996.5,N
1504604895.7,286046997.5,N
1504604915.6,286046993.4,P
1504604935.4,286046991.8,N
1504604955.2,286046997.5,N
1504604975.1,286046999.6,N
1504604976.0,286046999.6,N
1504604995.8,286046997.7,N
1504605015.6,286046995.9,N
1504605035.5,286046995.7,N
1504605055.3,286046999.6,N
1504605075.1,286046997.2,N
1504605095.9,286046994.0,N
1504605115.7,286046997.1,N
1504605135.5,286046995.7,N
1504605155.4,286046996.9,N
1504605175.2,286046996.7,N
1504605195.0,286046999.6,N
1504605195.9,286046999.6,N
1504605215.8,286047001.8,N
1504605235.6,286047003.5,N
1504605255.4,286047003.1,N
1504605275.2,286046999.2,N
1504605295.1,286046999.4,N
1504605296.0,286046999.4,N
1504605315.8,286046992.0,N
1504605335.7,286046990.3,P
1504605355.5,286046991.9,N
1504605375.3,286046992.2,N
1504605395.2,286046993.3,N
1504605415.9,286046999.4,N
1504605435.7,286046997.6,N
1504605455.5,286046996.7,N
1504605475.4,286046993.4,N
1504605495.2,286046995.6,N
1504605515.0,286046997.7,N
1504605515.9,286046997.7,N
1504605535.8,286047001.0,N
1504605555.6,286046997.3,N
1504605575.4,286046995.8,N
1504605595.3,286046994.2,N
